Simultaneous Nadir Overpasses (SNOs) Predictions

Prediction of SNOs between LANDSAT-8 and METOP-B Satellite Orbit:

Table of predicted SNOs for the next 14.0 days since TLE Epoch: 3/4/2023
Index Date (LANDSAT-8) Time (LANDSAT-8) Lat,Lon (LANDSAT-8) SZA (LANDSAT-8 ) Date (METOP-B) Time (METOP-B) Lat,Lon (METOP-B) SZA (METOP-B ) Distance(km) Time Diff (sec)
1 03/06/2023 19:03:37 -81.14, 113.82 91.60 03/06/2023 19:03:35 -81.13, 113.79 91.61 0.54 2
2 03/06/2023 19:53:02 81.17, -78.08 88.45 03/06/2023 19:54:13 81.16, -77.95 88.49 2.28 71
3 03/09/2023 13:48:24 81.10, 12.12 87.26 03/09/2023 13:47:17 81.11, 12.22 87.25 1.90 67
4 03/09/2023 14:37:50 -81.12,-179.95 92.71 03/09/2023 14:37:57 -81.13, 179.98 92.71 1.30 7
5 03/12/2023 09:22:34 81.11, 78.73 86.20 03/12/2023 09:21:37 81.11, 78.65 86.17 1.42 57
6 03/12/2023 10:12:00 -81.13,-113.32 93.77 03/12/2023 10:12:16 -81.14,-113.20 93.75 2.09 16
7 03/15/2023 04:56:44 81.13, 145.36 85.14 03/15/2023 04:55:57 81.12, 145.33 85.12 0.87 47
8 03/15/2023 05:46:10 -81.15, -46.66 94.83 03/15/2023 05:46:36 -81.15, -46.51 94.80 2.67 26
9 03/18/2023 00:30:54 81.12,-148.33 84.03 03/18/2023 00:30:18 81.11,-148.48 84.00 2.70 36



Historial Predications of SNOs between LANDSAT-8 and METOP-B
